Location: Memphis
(29.8667°N, 31.2500°E)
Time: 07:17:24
(UTC+00:00)

Cosmos 1470 Rocket - Pass Details

Date: 03 March 2021
Orbit: 603 x 634 km, 82.5° (Epoch: 15 April)

Event Time Altitude Azimuth Distance (km) Brightness Sun altitude
Rises 16:53:21 0° 194° (SSW) 2,914 7.2 -13.3°
Reaches altitude 10° 16:55:36 10° 198° (SSW) 2,010 6.4 -13.8°
Maximum altitude 17:00:00 58° 277° (W) 742 4.3 -14.8°
Drops below altitude 10° 17:04:24 10° 357° (N) 2,013 6.2 -15.7°
Sets 17:06:40 0° 1° (N) 2,920 7.0 -16.2°
